KM4KBD Weather Reports


Display with metric or nautical units.
time (UTC)temp
F
wind
direction
speed
MPH
gust
MPH
rain 1hr
in
rain 24hr
in
rain mn
in
humidity
%
barometer
mb
20260508203509 70 221 9.0 13.0 0.00 0.00 0.00 35 1018.1
20260508203005 70 234 8.0 11.0 0.00 0.00 0.00 35 1017.8
20260508202502 71 211 7.0 8.0 0.00 0.00 0.00 35 1018.1
20260508201959 70 310 5.0 5.0 0.00 0.00 0.00 36 1018.0
20260508201456 70 251 5.0 6.0 0.00 0.00 0.00 33 1018.4
20260508200953 70 288 4.0 6.0 0.00 0.00 0.00 34 1018.1
20260508200450 71 216 9.0 11.0 0.00 0.00 0.00 33 1018.6
20260508195944 70 237 8.0 9.0 0.00 0.00 0.00 34 1018.5
20260508195442 70 201 3.0 5.0 0.00 0.00 0.00 37 1018.6
20260508194938 69 229 5.0 6.0 0.00 0.00 0.00 36 1018.7
20260508194435 69 199 5.0 8.0 0.00 0.00 0.00 36 1018.7
20260508193932 70 225 6.0 7.0 0.00 0.00 0.00 39 1018.9
20260508193430 69 220 6.0 7.0 0.00 0.00 0.00 39 1018.8
20260508192925 70 233 6.0 7.0 0.00 0.00 0.00 38 1018.7
20260508192423 70 27 4.0 6.0 0.00 0.00 0.00 39 1018.6
20260508191919 69 257 3.0 6.0 0.00 0.00 0.00 38 1018.8
20260508191417 69 80 2.0 2.0 0.00 0.00 0.00 37 1018.9
20260508190913 69 189 5.0 10.0 0.00 0.00 0.00 42 1019.1
20260508190410 68 204 7.0 8.0 0.00 0.00 0.00 35 1019.4
20260508185907 68 241 10.0 14.0 0.00 0.00 0.00 38 1019.5
20260508185404 69 230 8.0 9.0 0.00 0.00 0.00 35 1019.6
20260508184901 69 222 4.0 6.0 0.00 0.00 0.00 39 1019.3
20260508184359 68 238 8.0 10.0 0.00 0.00 0.00 37 1019.7
20260508183855 68 231 6.0 9.0 0.00 0.00 0.00 37 1019.6
20260508183352 69 170 3.0 5.0 0.00 0.00 0.00 38 1019.7
20260508182848 68 186 3.0 5.0 0.00 0.00 0.00 40 1019.9
20260508182345 68 188 8.0 11.0 0.00 0.00 0.00 39 1020.1
20260508181840 69 216 4.0 5.0 0.00 0.00 0.00 40 1020.0
20260508181337 68 355 5.0 7.0 0.00 0.00 0.00 40 1020.0
20260508180834 68 226 6.0 7.0 0.00 0.00 0.00 38 1020.2
20260508180331 67 257 4.0 6.0 0.00 0.00 0.00 39 1020.4
20260508175827 67 208 3.0 3.0 0.00 0.00 0.00 45 1020.7
20260508175324 68 224 11.0 13.0 0.00 0.00 0.00 37 1020.4
20260508174822 67 203 6.0 8.0 0.00 0.00 0.00 40 1020.8
20260508174319 67 223 1.0 3.0 0.00 0.00 0.00 42 1020.8
20260508173815 67 253 7.0 9.0 0.00 0.00 0.00 40 1021.0
20260508173313 67 314 4.0 6.0 0.00 0.00 0.00 40 1021.2
20260508172808 66 238 6.0 7.0 0.00 0.00 0.00 43 1021.2
20260508172307 66 241 7.0 8.0 0.00 0.00 0.00 40 1021.4
20260508171802 67 248 6.0 7.0 0.00 0.00 0.00 37 1021.4
20260508171258 66 229 5.0 7.0 0.00 0.00 0.00 44 1021.7
20260508170755 67 198 2.0 3.0 0.00 0.00 0.00 45 1021.7
20260508170253 66 211 3.0 5.0 0.00 0.00 0.00 44 1021.7
20260508165749 66 283 5.0 6.0 0.00 0.00 0.00 40 1021.7
20260508165247 66 235 7.0 8.0 0.00 0.00 0.00 42 1021.8
20260508164743 66 226 2.0 2.0 0.00 0.00 0.00 48 1021.9
20260508164240 65 270 7.0 8.0 0.00 0.00 0.00 45 1021.8
20260508163738 66 253 5.0 6.0 0.00 0.00 0.00 46 1022.2
20260508163235 64 250 4.0 5.0 0.00 0.00 0.00 45 1022.3
20260508162731 65 279 2.0 2.0 0.00 0.00 0.00 45 1022.2
20260508162228 66 233 6.0 8.0 0.00 0.00 0.00 45 1022.5
20260508161725 65 156 2.0 3.0 0.00 0.00 0.00 44 1022.5
20260508161222 65 214 5.0 8.0 0.00 0.00 0.00 49 1022.6
20260508160720 64 237 8.0 9.0 0.00 0.00 0.00 46 1022.7
20260508160218 64 258 6.0 9.0 0.00 0.00 0.00 47 1022.7
20260508155714 64 231 6.0 7.0 0.00 0.00 0.00 49 1022.6
20260508155212 64 211 5.0 6.0 0.00 0.00 0.00 47 1022.7
20260508154708 64 228 7.0 7.0 0.00 0.00 0.00 43 1022.8
20260508154206 63 248 4.0 5.0 0.00 0.00 0.00 46 1022.8
20260508153702 63 248 4.0 6.0 0.00 0.00 0.00 50 1022.7
20260508153159 62 206 9.0 10.0 0.00 0.00 0.00 44 1022.8
20260508152655 62 248 5.0 7.0 0.00 0.00 0.00 47 1023.2
20260508152151 62 285 4.0 6.0 0.00 0.00 0.00 46 1023.3
20260508151648 62 231 7.0 8.0 0.00 0.00 0.00 46 1023.1
20260508151145 61 256 7.0 8.0 0.00 0.00 0.00 44 1023.0
20260508150642 61 251 6.0 8.0 0.00 0.00 0.00 45 1023.3
20260508150138 61 231 7.0 8.0 0.00 0.00 0.00 46 1023.4
20260508145634 61 229 5.0 6.0 0.00 0.00 0.00 49 1023.0
20260508145131 60 245 3.0 5.0 0.00 0.00 0.00 50 1023.1
20260508144628 60 265 7.0 10.0 0.00 0.00 0.00 49 1023.2
20260508144126 60 279 6.0 8.0 0.00 0.00 0.00 49 1023.3
20260508143623 60 56 4.0 6.0 0.00 0.00 0.00 52 1023.2
20260508143120 60 243 7.0 9.0 0.00 0.00 0.00 49 1023.0
20260508142616 60 273 8.0 10.0 0.00 0.00 0.00 48 1023.0
20260508142113 59 261 7.0 8.0 0.00 0.00 0.00 49 1023.2
20260508141610 59 220 8.0 9.0 0.00 0.00 0.00 48 1023.2
20260508141108 59 293 7.0 8.0 0.00 0.00 0.00 47 1023.2
20260508140604 59 229 5.0 9.0 0.00 0.00 0.00 52 1023.2
20260508135556 59 285 2.0 2.0 0.00 0.00 0.00 56 1023.2
20260508135053 58 252 4.0 5.0 0.00 0.00 0.00 55 1023.2
20260508134550 57 288 3.0 3.0 0.00 0.00 0.00 52 1023.1
20260508134047 57 288 5.0 6.0 0.00 0.00 0.00 55 1023.3
20260508133543 57 269 4.0 5.0 0.00 0.00 0.00 54 1023.0
20260508133041 56 234 2.0 2.0 0.00 0.00 0.00 56 1023.1
20260508132539 56 201 3.0 5.0 0.00 0.00 0.00 61 1023.2
20260508132035 55 222 5.0 7.0 0.00 0.00 0.00 58 1022.9
20260508131530 54 230 4.0 5.0 0.00 0.00 0.00 61 1023.1
20260508131027 53 258 3.0 3.0 0.00 0.00 0.00 68 1023.2
20260508130525 52 290 1.0 1.0 0.00 0.00 0.00 69 1023.1
20260508130021 51 255 3.0 3.0 0.00 0.00 0.00 70 1023.2
20260508125517 50 279 2.0 3.0 0.00 0.00 0.00 70 1023.1
20260508125015 50 233 3.0 3.0 0.00 0.00 0.00 71 1023.0
20260508124512 49 356 0.0 0.0 0.00 0.00 0.00 72 1022.9
20260508124009 49 332 1.0 1.0 0.00 0.00 0.00 73 1022.9
20260508123508 48 313 2.0 2.0 0.00 0.00 0.00 73 1022.9
20260508123004 47 308 0.0 0.0 0.00 0.00 0.00 74 1022.9
20260508122501 46 276 0.0 1.0 0.00 0.00 0.00 76 1022.9
20260508121958 46 308 0.0 0.0 0.00 0.00 0.00 76 1022.8
20260508121456 46 215 1.0 1.0 0.00 0.00 0.00 78 1022.8
20260508120954 45 290 1.0 1.0 0.00 0.00 0.00 79 1022.7
20260508120451 44 328 0.0 1.0 0.00 0.00 0.00 79 1022.9
20260508115949 44 299 0.0 1.0 0.00 0.00 0.00 80 1022.8
20260508115447 43 311 0.0 1.0 0.00 0.00 0.00 82 1023.0
20260508114943 43 209 1.0 2.0 0.00 0.00 0.00 81 1022.9
20260508114440 42 164 2.0 2.0 0.00 0.00 0.00 82 1022.6
20260508113936 41 327 0.0 0.0 0.00 0.00 0.00 84 1022.5
20260508113434 41 312 0.0 1.0 0.00 0.00 0.00 84 1022.5
20260508112931 41 8 0.0 0.0 0.00 0.00 0.00 83 1022.6
20260508112428 41 62 1.0 1.0 0.00 0.00 0.00 83 1022.3
20260508111924 41 127 2.0 2.0 0.00 0.00 0.00 83 1022.5
20260508111422 40 97 3.0 3.0 0.00 0.00 0.00 84 1022.4
20260508110919 40 160 3.0 3.0 0.00 0.00 0.00 85 1022.5
20260508110417 40 355 1.0 1.0 0.00 0.00 0.00 85 1022.3
20260508105916 41 359 0.0 1.0 0.00 0.00 0.00 84 1022.3
20260508105412 41 108 1.0 1.0 0.00 0.00 0.00 81 1022.2
20260508104910 41 122 2.0 2.0 0.00 0.00 0.00 81 1022.2
20260508104407 41 151 1.0 1.0 0.00 0.00 0.00 82 1022.2
20260508103904 41 113 1.0 1.0 0.00 0.00 0.00 82 1022.2
20260508103401 41 111 2.0 2.0 0.00 0.00 0.00 82 1022.1
20260508102858 41 114 1.0 2.0 0.00 0.00 0.00 84 1022.0
20260508102356 41 119 2.0 2.0 0.00 0.00 0.00 83 1022.1
20260508101853 41 346 0.0 0.0 0.00 0.00 0.00 82 1022.3
20260508101350 42 349 0.0 0.0 0.00 0.00 0.00 78 1022.0
20260508100848 42 335 0.0 1.0 0.00 0.00 0.00 78 1022.2
20260508100347 42 126 1.0 1.0 0.00 0.00 0.00 78 1022.0
20260508095842 42 142 2.0 2.0 0.00 0.00 0.00 78 1022.0
20260508095340 42 299 0.0 1.0 0.00 0.00 0.00 78 1021.9
20260508094836 42 292 0.0 1.0 0.00 0.00 0.00 79 1021.9
20260508094333 42 108 1.0 2.0 0.00 0.00 0.00 79 1022.1
20260508093830 42 224 1.0 1.0 0.00 0.00 0.00 78 1022.2
20260508093328 43 211 1.0 2.0 0.00 0.00 0.00 78 1022.2
20260508092825 43 206 1.0 1.0 0.00 0.00 0.00 77 1022.2
20260508092323 43 127 2.0 2.0 0.00 0.00 0.00 77 1022.0
20260508091821 43 141 3.0 3.0 0.00 0.00 0.00 77 1022.1
20260508091317 43 133 1.0 1.0 0.00 0.00 0.00 78 1022.0
20260508090815 42 211 1.0 1.0 0.00 0.00 0.00 78 1022.2
20260508090314 42 45 0.0 1.0 0.00 0.00 0.00 79 1022.0
20260508085809 42 294 0.0 1.0 0.00 0.00 0.00 80 1021.9
20260508085307 42 331 0.0 0.0 0.00 0.00 0.00 80 1022.1
20260508084801 41 333 0.0 1.0 0.00 0.00 0.00 82 1022.3
20260508084259 41 337 0.0 0.0 0.00 0.00 0.00 84 1022.1
20260508083757 41 341 0.0 0.0 0.00 0.00 0.00 82 1022.3
20260508083254 41 329 0.0 0.0 0.00 0.00 0.00 83 1022.3
20260508082753 41 310 0.0 0.0 0.00 0.00 0.00 83 1022.1
20260508082252 41 334 0.0 0.0 0.00 0.00 0.00 84 1022.2
20260508081748 40 344 0.0 0.0 0.00 0.00 0.00 88 1022.3
20260508081245 39 321 0.0 0.0 0.00 0.00 0.00 90 1022.1
20260508080742 39 309 0.0 0.0 0.00 0.00 0.00 93 1022.0
20260508080240 39 330 0.0 0.0 0.00 0.00 0.00 94 1022.0
20260508075737 38 320 0.0 0.0 0.00 0.00 0.00 94 1022.1
20260508075233 38 330 0.0 0.0 0.00 0.00 0.00 94 1022.2
20260508074731 37 324 0.0 0.0 0.00 0.00 0.00 93 1022.4
20260508074229 38 315 1.0 1.0 0.00 0.00 0.00 91 1022.1
20260508073725 41 326 0.0 0.0 0.00 0.00 0.00 86 1021.8
20260508073223 40 320 0.0 0.0 0.00 0.00 0.00 86 1021.9
20260508072719 41 325 0.0 0.0 0.00 0.00 0.00 84 1021.9
20260508072216 41 320 0.0 0.0 0.00 0.00 0.00 83 1021.9
20260508071713 41 318 0.0 0.0 0.00 0.00 0.00 83 1022.1
20260508071212 42 327 0.0 0.0 0.00 0.00 0.00 80 1022.1
20260508070709 43 246 0.0 1.0 0.00 0.00 0.00 80 1022.1
20260508070208 43 124 2.0 2.0 0.00 0.00 0.00 79 1021.9
20260508065704 43 195 1.0 1.0 0.00 0.00 0.00 79 1022.0
20260508065202 43 314 1.0 1.0 0.00 0.00 0.00 79 1021.8
20260508064700 43 241 1.0 2.0 0.00 0.00 0.00 79 1022.1
20260508064158 43 177 1.0 2.0 0.00 0.00 0.00 78 1022.0
20260508063655 43 173 1.0 2.0 0.00 0.00 0.00 77 1021.9
20260508063152 43 139 1.0 1.0 0.00 0.00 0.00 78 1022.1
20260508062650 44 36 1.0 1.0 0.00 0.00 0.00 77 1022.0
20260508062147 44 52 0.0 0.0 0.00 0.00 0.00 77 1022.0
20260508061643 44 153 1.0 2.0 0.00 0.00 0.00 75 1021.9
20260508061141 44 95 1.0 1.0 0.00 0.00 0.00 75 1022.2
20260508060638 44 134 1.0 1.0 0.00 0.00 0.00 75 1022.0
20260508060135 43 111 1.0 1.0 0.00 0.00 0.00 78 1022.1
20260508055630 43 309 0.0 1.0 0.00 0.00 0.00 79 1022.1
20260508055128 43 12 1.0 1.0 0.00 0.00 0.00 77 1022.2
20260508054624 43 307 0.0 0.0 0.00 0.00 0.00 77 1022.1
20260508054122 44 323 0.0 0.0 0.00 0.00 0.00 76 1022.2
20260508053618 44 33 0.0 0.0 0.00 0.00 0.00 75 1022.3
20260508053116 46 325 0.0 0.0 0.00 0.00 0.00 72 1022.2
20260508052613 46 157 1.0 2.0 0.00 0.00 0.00 70 1022.2
20260508052110 45 114 1.0 2.0 0.00 0.00 0.00 72 1022.3
20260508051606 45 2 0.0 1.0 0.00 0.00 0.00 71 1022.5
20260508051102 46 285 0.0 1.0 0.00 0.00 0.00 67 1022.4
20260508050558 46 311 0.0 0.0 0.00 0.00 0.00 66 1022.4
20260508050056 46 324 1.0 1.0 0.00 0.00 0.00 67 1022.5
20260508045552 46 346 0.0 1.0 0.00 0.00 0.00 67 1022.4
20260508045050 45 318 0.0 1.0 0.00 0.00 0.00 70 1022.2
20260508044547 45 346 0.0 0.0 0.00 0.00 0.00 69 1022.3
20260508044043 45 339 0.0 0.0 0.00 0.00 0.00 68 1022.1
20260508043539 45 329 0.0 0.0 0.00 0.00 0.00 69 1022.2
20260508043037 46 331 0.0 0.0 0.00 0.00 0.00 68 1022.3
20260508042533 46 338 0.0 0.0 0.00 0.00 0.00 66 1022.3
20260508042031 47 333 0.0 0.0 0.00 0.00 0.00 65 1022.2
20260508041527 47 337 0.0 0.0 0.00 0.00 0.00 64 1022.2
20260508041024 47 333 0.0 0.0 0.00 0.00 0.00 65 1022.1
20260508040521 47 326 0.0 0.0 0.00 0.00 0.00 64 1022.1
20260508040018 47 342 0.0 0.0 0.00 0.00 0.00 65 1022.3
20260508035515 47 328 0.0 0.0 0.00 0.00 0.00 65 1022.3
20260508035012 47 346 0.0 0.0 0.00 0.00 0.00 65 1022.1
20260508034509 47 341 0.0 0.0 0.00 0.00 0.00 65 1022.3
20260508034006 47 335 0.0 0.0 0.00 0.00 0.00 65 1022.3
20260508033504 47 337 0.0 0.0 0.00 0.00 0.00 66 1022.3
20260508033001 46 330 0.0 0.0 0.00 0.00 0.00 67 1022.3
20260508032458 47 326 0.0 0.0 0.00 0.00 0.00 66 1022.2
20260508031955 47 338 0.0 0.0 0.00 0.00 0.00 65 1022.3
20260508031453 48 329 0.0 0.0 0.00 0.00 0.00 62 1022.3
20260508030948 49 331 0.0 0.0 0.00 0.00 0.00 61 1022.4
20260508030445 50 332 0.0 0.0 0.00 0.00 0.00 60 1022.3
20260508025943 50 351 0.0 0.0 0.00 0.00 0.00 59 1022.4
20260508025439 50 337 0.0 0.0 0.00 0.00 0.00 59 1022.3
20260508024936 50 342 0.0 0.0 0.00 0.00 0.00 60 1022.3
20260508024432 50 0 0.0 0.0 0.00 0.00 0.00 60 1022.0
20260508023929 50 329 0.0 0.0 0.00 0.00 0.00 61 1022.2
20260508023426 49 332 0.0 0.0 0.00 0.00 0.00 61 1022.1
20260508022923 50 331 0.0 0.0 0.00 0.00 0.00 60 1022.1
20260508022419 50 328 0.0 0.0 0.00 0.00 0.00 59 1022.0
20260508021916 51 327 0.0 0.0 0.00 0.00 0.00 58 1022.1
20260508021412 51 325 0.0 0.0 0.00 0.00 0.00 56 1021.9
20260508020908 51 319 0.0 0.0 0.00 0.00 0.00 56 1022.1
20260508020406 51 315 0.0 0.0 0.00 0.00 0.00 56 1021.8
20260508015903 51 333 0.0 0.0 0.00 0.00 0.00 56 1021.5
20260508015400 52 324 0.0 0.0 0.00 0.00 0.00 56 1021.4
20260508014856 52 325 0.0 0.0 0.00 0.00 0.00 55 1021.2
20260508014355 52 330 0.0 0.0 0.00 0.00 0.00 55 1021.4
20260508013855 52 323 1.0 1.0 0.00 0.00 0.00 55 1021.3
20260508013352 52 331 0.0 0.0 0.00 0.00 0.00 55 1021.1
20260508012849 52 320 0.0 1.0 0.00 0.00 0.00 55 1021.2
20260508012346 53 329 0.0 1.0 0.00 0.00 0.00 55 1021.0
20260508011844 53 324 0.0 1.0 0.00 0.00 0.00 54 1021.1
20260508011342 54 318 0.0 0.0 0.00 0.00 0.00 52 1020.8
20260508010838 54 304 1.0 2.0 0.00 0.00 0.00 51 1021.1
20260508010336 55 322 0.0 1.0 0.00 0.00 0.00 50 1020.9
20260508005833 55 321 1.0 1.0 0.00 0.00 0.00 48 1020.8
20260508005330 55 326 1.0 1.0 0.00 0.00 0.00 48 1020.9
20260508004826 55 324 0.0 0.0 0.00 0.00 0.00 47 1020.8
20260508004322 56 325 1.0 1.0 0.00 0.00 0.00 46 1020.6
20260508003818 56 304 1.0 1.0 0.00 0.00 0.00 45 1020.8
20260508003316 57 318 1.0 1.0 0.00 0.00 0.00 45 1020.8
20260508002813 57 313 2.0 2.0 0.00 0.00 0.00 44 1020.5
20260508002309 58 309 1.0 1.0 0.00 0.00 0.00 43 1020.5
20260508001806 59 323 2.0 2.0 0.00 0.00 0.00 42 1020.3
20260508001301 59 324 1.0 1.0 0.00 0.00 0.00 42 1020.5
20260508000758 60 306 2.0 2.0 0.00 0.00 0.00 41 1020.4
20260508000257 60 306 3.0 3.0 0.00 0.00 0.00 40 1020.3
20260507235751 60 280 4.0 6.0 0.00 0.00 0.00 38 1020.5
20260507235249 60 308 3.0 3.0 0.00 0.00 0.00 38 1020.3
20260507234745 61 293 5.0 6.0 0.00 0.00 0.00 37 1020.3
20260507234242 61 275 2.0 2.0 0.00 0.00 0.00 39 1020.4
20260507233738 62 266 4.0 6.0 0.00 0.00 0.00 37 1020.2
20260507233237 62 282 3.0 3.0 0.00 0.00 0.00 37 1020.2
20260507232734 62 314 4.0 6.0 0.00 0.00 0.00 36 1020.3
20260507232231 62 331 5.0 7.0 0.00 0.00 0.00 38 1020.3
20260507231727 62 304 6.0 7.0 0.00 0.00 0.00 35 1020.4
20260507231224 62 304 5.0 7.0 0.00 0.00 0.00 36 1020.0
20260507230721 63 2 2.0 3.0 0.00 0.00 0.00 33 1020.2
20260507230219 63 301 5.0 7.0 0.00 0.00 0.00 35 1020.1
20260507225717 62 315 3.0 3.0 0.00 0.00 0.00 35 1020.1
20260507225214 63 341 3.0 5.0 0.00 0.00 0.00 35 1019.9
20260507224710 64 336 3.0 5.0 0.00 0.00 0.00 33 1020.2
20260507224207 63 280 1.0 1.0 0.00 0.00 0.00 32 1020.0
20260507223703 62 308 6.0 8.0 0.00 0.00 0.00 35 1020.0
20260507223200 62 306 7.0 9.0 0.00 0.00 0.00 36 1019.9
20260507222657 64 243 6.0 7.0 0.00 0.00 0.00 35 1020.2
20260507222153 64 332 1.0 1.0 0.00 0.00 0.00 31 1020.2
20260507221649 63 271 2.0 3.0 0.00 0.00 0.00 33 1020.3
20260507221146 64 291 5.0 6.0 0.00 0.00 0.00 32 1020.4
20260507220643 63 314 4.0 5.0 0.00 0.00 0.00 33 1020.1
20260507220142 64 307 2.0 2.0 0.00 0.00 0.00 34 1020.2
20260507215637 62 328 2.0 2.0 0.00 0.00 0.00 35 1020.0
20260507215135 63 345 3.0 3.0 0.00 0.00 0.00 39 1020.1
20260507214632 63 304 4.0 5.0 0.00 0.00 0.00 42 1020.2
20260507214128 62 317 3.0 3.0 0.00 0.00 0.00 40 1020.1
20260507213624 62 317 3.0 3.0 0.00 0.00 0.00 37 1020.1
20260507213122 62 305 6.0 7.0 0.00 0.00 0.00 37 1019.9
20260507212618 62 347 9.0 13.0 0.00 0.00 0.00 37 1019.9
20260507212114 62 314 3.0 5.0 0.00 0.00 0.00 38 1020.0
20260507211611 62 324 5.0 6.0 0.00 0.00 0.00 37 1020.1
20260507211107 62 235 7.0 9.0 0.00 0.00 0.00 37 1020.0
20260507210605 62 322 7.0 9.0 0.00 0.00 0.00 42 1019.9
20260507205558 62 307 5.0 11.0 0.00 0.00 0.00 42 1019.9
20260507205054 62 339 3.0 5.0 0.00 0.00 0.00 40 1020.0
20260507204550 63 321 3.0 3.0 0.00 0.00 0.00 38 1020.0
20260507204048 63 275 3.0 5.0 0.00 0.00 0.00 42 1020.1